KUIPER-00107

导读

KUIPER-00107是美国亚马逊柯伊伯(Kuiper)低轨卫星星座的组网卫星,于2025年8月11日发射入轨。该星座计划部署3236颗Ka波段卫星,运行在590-630公里近地轨道,旨在为全球提供高速低延迟卫星宽带服务。卫星搭载多用户相控阵天线,可动态调配容量与频段,支持个人消费、企业联网与无线回程业务,通过星上再生交换实现高效路由,是全球低轨互联网基础设施建设的重要组成部分。

Basic Information
目录编号:
65145
目录名称:
KUIPER-00107
国际标识:
2025-171P
轨道中心:
EARTH
卫星名称:
KUIPER-00107
卫星全名:
KUIPER-00107
卫星状态:
在轨 (已飞行350 天)
发射日期:
2025-08-11 UTC
国别 :
美国 (US)
星等 :
--
Orbit Information
数据来源 国际轨道数据 AOE轨道数据
星历时间 2026-07-27T21:01:10+0800
10小时前
查看轨道信息
2026-07-26T03:00:00+0800
2天前
查看轨道信息
半长轴 7007.681km 7007.708km
偏心率 0.0000308 0.0001461
轨道倾角 51.899° 51.894°
近地点辐角 57.694° 94.919°
升交点赤经 249.670° 257.413°
平近点角 302.406° 291.699°
近地点 629.328km 628.547km
远地点 629.76km 630.595km
周期 97.302分钟 97.302分钟
每日圈数 14.799304 14.799219
Detailed Information
使用方式:
暂无
2D Orbit Map
3D Orbit Map
Orbit Altitude Analysis Chart
Orbit Inclination Analysis Chart
Orbit Comprehensive Analysis Chart
View Comprehensive Chart